Time,TemperatureF,DewpointF,PressureIn,WindDirection,WindDirectionDegrees,WindSpeedMPH,WindSpeedGustMPH,Humidity,HourlyPrecipIn,Conditions,Clouds,dailyrainin,SoftwareType,DateUTC
2013-04-26 00:01:00,40.5,32.9,16.40,East,87,0.0,0.0,74,0.00,,SKC,0.00,VWS V14.01,2013-04-26 04:01:00,
2013-04-26 00:06:00,40.4,33.1,16.40,East,86,0.0,0.0,75,0.00,,SKC,0.00,VWS V14.01,2013-04-26 04:06:00,
2013-04-26 00:11:00,40.3,32.7,16.40,East,86,2.0,2.0,74,0.00,,SKC,0.00,VWS V14.01,2013-04-26 04:11:00,
2013-04-26 00:16:00,40.4,32.8,16.40,East,87,3.0,3.0,74,0.00,,SKC,0.00,VWS V14.01,2013-04-26 04:16:00,
2013-04-26 00:21:00,40.2,32.9,16.40,East,87,1.0,3.0,75,0.00,,SKC,0.00,VWS V14.01,2013-04-26 04:21:00,
2013-04-26 00:26:00,40.2,32.9,16.40,East,87,1.0,1.0,75,0.00,,SKC,0.00,VWS V14.01,2013-04-26 04:26:00,
2013-04-26 00:31:00,40.2,32.6,16.40,East,87,2.0,2.0,74,0.00,,SKC,0.00,VWS V14.01,2013-04-26 04:31:00,
2013-04-26 00:36:00,40.2,32.6,16.40,East,89,0.0,2.0,74,0.00,,SKC,0.00,VWS V14.01,2013-04-26 04:36:00,
2013-04-26 00:41:00,40.0,32.4,16.40,East,89,0.0,0.0,74,0.00,,SKC,0.00,VWS V14.01,2013-04-26 04:41:00,
2013-04-26 00:46:00,40.0,32.4,18.99,East,91,0.0,0.0,74,0.00,,SKC,0.00,VWS V14.01,2013-04-26 04:46:00,
2013-04-26 00:51:00,39.9,32.6,18.99,East,91,0.0,0.0,75,0.00,,SKC,0.00,VWS V14.01,2013-04-26 04:51:00,
2013-04-26 00:56:00,39.8,32.5,18.99,East,91,1.0,1.0,75,0.00,,SKC,0.00,VWS V14.01,2013-04-26 04:56:00,
2013-04-26 01:01:00,39.6,32.7,18.99,East,91,0.0,0.0,76,0.00,,SKC,0.00,VWS V14.01,2013-04-26 05:01:00,
2013-04-26 01:06:00,39.3,32.7,18.99,East,91,0.0,0.0,77,0.00,,SKC,0.00,VWS V14.01,2013-04-26 05:06:00,
2013-04-26 01:11:00,39.1,32.5,18.99,East,92,0.0,0.0,77,0.00,,SKC,0.00,VWS V14.01,2013-04-26 05:11:00,
2013-04-26 01:16:00,38.9,32.6,18.99,East,92,0.0,0.0,78,0.00,,SKC,0.00,VWS V14.01,2013-04-26 05:16:00,
2013-04-26 01:21:00,38.6,32.3,18.99,East,91,0.0,0.0,78,0.00,,SKC,0.00,VWS V14.01,2013-04-26 05:21:00,
2013-04-26 01:26:00,38.3,32.4,18.99,East,91,0.0,0.0,79,0.00,,SKC,0.00,VWS V14.01,2013-04-26 05:26:00,
2013-04-26 01:31:00,38.0,32.1,18.99,East,91,0.0,0.0,79,0.00,,SKC,0.00,VWS V14.01,2013-04-26 05:31:00,
2013-04-26 01:36:00,37.8,31.9,18.99,East,91,0.0,0.0,79,0.00,,SKC,0.00,VWS V14.01,2013-04-26 05:36:00,
2013-04-26 01:41:00,37.5,31.6,18.99,East,91,0.0,0.0,79,0.00,,SKC,0.00,VWS V14.01,2013-04-26 05:41:00,
2013-04-26 01:46:00,37.4,31.5,18.99,East,91,0.0,0.0,79,0.00,,SKC,0.00,VWS V14.01,2013-04-26 05:46:00,
2013-04-26 01:51:00,37.3,31.4,18.99,East,91,0.0,0.0,79,0.00,,SKC,0.00,VWS V14.01,2013-04-26 05:51:00,
2013-04-26 01:56:00,37.1,31.5,18.99,East,91,0.0,0.0,80,0.00,,SKC,0.00,VWS V14.01,2013-04-26 05:56:00,
2013-04-26 02:01:00,37.0,31.7,18.99,East,91,0.0,0.0,81,0.00,,SKC,0.00,VWS V14.01,2013-04-26 06:01:00,
2013-04-26 02:06:00,36.8,31.2,18.99,East,91,0.0,0.0,80,0.00,,SKC,0.00,VWS V14.01,2013-04-26 06:06:00,
2013-04-26 02:11:00,36.7,31.1,18.99,East,91,0.0,0.0,80,0.00,,SKC,0.00,VWS V14.01,2013-04-26 06:11:00,
2013-04-26 02:15:00,36.6,31.3,18.99,East,91,0.0,0.0,81,0.00,,SKC,0.00,VWS V14.01,2013-04-26 06:15:00,
2013-04-26 02:20:00,36.4,31.4,18.99,East,91,0.0,0.0,82,0.00,,SKC,0.00,VWS V14.01,2013-04-26 06:20:00,
2013-04-26 02:25:00,36.2,31.2,18.99,East,91,0.0,1.0,82,0.00,,SKC,0.00,VWS V14.01,2013-04-26 06:25:00,
2013-04-26 02:30:00,36.1,31.1,18.99,East,91,0.0,0.0,82,0.00,,SKC,0.00,VWS V14.01,2013-04-26 06:30:00,
2013-04-26 02:35:00,36.0,31.4,18.99,East,91,0.0,0.0,83,0.00,,SKC,0.00,VWS V14.01,2013-04-26 06:35:00,
2013-04-26 02:40:00,35.9,31.2,18.99,East,91,0.0,0.0,83,0.00,,SKC,0.00,VWS V14.01,2013-04-26 06:40:00,
2013-04-26 02:45:00,35.8,31.1,29.56,East,91,0.0,0.0,83,0.00,,SKC,0.00,VWS V14.01,2013-04-26 06:45:00,
2013-04-26 02:50:00,35.8,31.1,30.48,East,91,0.0,0.0,83,0.00,,SKC,0.00,VWS V14.01,2013-04-26 06:50:00,
2013-04-26 02:55:00,35.6,31.0,30.48,East,91,0.0,0.0,83,0.00,,SKC,0.00,VWS V14.01,2013-04-26 06:55:00,
2013-04-26 03:00:00,35.5,30.9,30.48,East,91,0.0,0.0,83,0.00,,SKC,0.00,VWS V14.01,2013-04-26 07:00:00,
2013-04-26 03:05:00,35.4,31.1,30.48,East,91,0.0,0.0,84,0.00,,SKC,0.00,VWS V14.01,2013-04-26 07:05:00,
2013-04-26 03:10:00,35.3,31.0,30.48,East,91,0.0,0.0,84,0.00,,SKC,0.00,VWS V14.01,2013-04-26 07:10:00,
2013-04-26 03:15:00,35.2,30.9,30.48,East,91,0.0,0.0,84,0.00,,SKC,0.00,VWS V14.01,2013-04-26 07:15:00,
2013-04-26 03:20:00,35.2,31.1,30.48,East,91,0.0,0.0,85,0.00,,SKC,0.00,VWS V14.01,2013-04-26 07:20:00,
2013-04-26 03:25:00,35.2,31.1,30.48,East,91,0.0,0.0,85,0.00,,SKC,0.00,VWS V14.01,2013-04-26 07:25:00,
2013-04-26 03:30:00,35.1,31.0,30.48,East,91,0.0,0.0,85,0.00,,SKC,0.00,VWS V14.01,2013-04-26 07:30:00,
2013-04-26 03:35:00,35.0,31.0,30.48,East,91,0.0,0.0,85,0.00,,SKC,0.00,VWS V14.01,2013-04-26 07:35:00,
2013-04-26 03:40:00,34.8,30.8,30.48,East,91,0.0,0.0,85,0.00,,SKC,0.00,VWS V14.01,2013-04-26 07:40:00,
2013-04-26 03:45:00,34.6,30.6,30.48,East,91,0.0,0.0,85,0.00,,SKC,0.00,VWS V14.01,2013-04-26 07:45:00,
2013-04-26 03:50:00,34.4,30.4,30.48,East,91,0.0,0.0,85,0.00,,SKC,0.00,VWS V14.01,2013-04-26 07:50:00,
2013-04-26 03:55:00,34.4,30.6,30.48,East,91,0.0,0.0,86,0.00,,SKC,0.00,VWS V14.01,2013-04-26 07:55:00,
2013-04-26 04:00:00,34.3,30.6,30.48,East,91,0.0,0.0,86,0.00,,SKC,0.00,VWS V14.01,2013-04-26 08:00:00,
2013-04-26 04:05:00,34.3,30.8,30.48,East,91,0.0,0.0,87,0.00,,SKC,0.00,VWS V14.01,2013-04-26 08:05:00,
2013-04-26 04:10:00,34.3,30.8,30.48,East,91,0.0,0.0,87,0.00,,SKC,0.00,VWS V14.01,2013-04-26 08:10:00,
2013-04-26 04:15:00,34.2,30.7,30.48,East,91,0.0,0.0,87,0.00,,SKC,0.00,VWS V14.01,2013-04-26 08:15:00,
2013-04-26 04:20:00,34.1,30.6,30.48,East,91,0.0,0.0,87,0.00,,SKC,0.00,VWS V14.01,2013-04-26 08:20:00,
2013-04-26 04:25:00,33.9,30.5,30.48,East,91,0.0,0.0,87,0.00,,SKC,0.00,VWS V14.01,2013-04-26 08:25:00,
2013-04-26 04:30:00,33.7,30.2,30.48,East,91,0.0,0.0,87,0.00,,SKC,0.00,VWS V14.01,2013-04-26 08:30:00,
2013-04-26 04:35:00,33.5,30.0,30.48,East,91,0.0,0.0,87,0.00,,SKC,0.00,VWS V14.01,2013-04-26 08:35:00,
2013-04-26 04:40:00,33.3,29.9,30.48,East,91,0.0,0.0,87,0.00,,SKC,0.00,VWS V14.01,2013-04-26 08:40:00,
2013-04-26 04:45:00,33.2,30.0,30.10,East,91,0.0,0.0,88,0.00,,SKC,0.00,VWS V14.01,2013-04-26 08:45:00,
2013-04-26 04:50:00,33.0,29.8,30.10,East,91,0.0,0.0,88,0.00,,SKC,0.00,VWS V14.01,2013-04-26 08:50:00,
2013-04-26 04:55:00,32.9,29.7,30.10,East,92,0.0,0.0,88,0.00,,SKC,0.00,VWS V14.01,2013-04-26 08:55:00,
2013-04-26 05:00:00,32.7,29.5,30.10,East,91,0.0,0.0,88,0.00,,SKC,0.00,VWS V14.01,2013-04-26 09:00:00,
2013-04-26 05:05:00,32.6,29.5,30.10,East,91,0.0,0.0,88,0.00,,SKC,0.00,VWS V14.01,2013-04-26 09:05:00,
2013-04-26 05:10:00,32.6,29.7,29.86,East,92,0.0,0.0,89,0.00,,SKC,0.00,VWS V14.01,2013-04-26 09:10:00,
2013-04-26 05:15:00,32.6,29.7,29.86,East,91,0.0,0.0,89,0.00,,SKC,0.00,VWS V14.01,2013-04-26 09:15:00,
2013-04-26 05:20:00,32.5,29.6,29.86,East,91,0.0,0.0,89,0.00,,SKC,0.00,VWS V14.01,2013-04-26 09:20:00,
2013-04-26 05:25:00,32.4,29.5,29.86,East,91,0.0,0.0,89,0.00,,SKC,0.00,VWS V14.01,2013-04-26 09:25:00,
2013-04-26 05:30:00,32.3,29.4,29.86,East,91,0.0,0.0,89,0.00,,SKC,0.00,VWS V14.01,2013-04-26 09:30:00,
2013-04-26 05:35:00,32.2,29.3,29.30,East,91,0.0,0.0,89,0.00,,SKC,0.00,VWS V14.01,2013-04-26 09:35:00,
2013-04-26 05:40:00,32.1,29.2,29.30,East,91,0.0,0.0,89,0.00,,SKC,0.00,VWS V14.01,2013-04-26 09:40:00,
2013-04-26 05:45:00,31.9,29.0,29.30,East,91,0.0,0.0,89,0.00,,SKC,0.00,VWS V14.01,2013-04-26 09:45:00,
2013-04-26 05:50:00,31.9,29.0,29.30,East,91,0.0,0.0,89,0.00,,SKC,0.00,VWS V14.01,2013-04-26 09:50:00,
2013-04-26 05:55:00,31.8,28.9,29.30,East,91,0.0,0.0,89,0.00,,SKC,0.00,VWS V14.01,2013-04-26 09:55:00,
2013-04-26 06:00:00,31.9,29.0,29.30,East,91,0.0,0.0,89,0.00,,SKC,0.00,VWS V14.01,2013-04-26 10:00:00,
2013-04-26 06:05:00,31.7,28.8,29.30,East,91,0.0,0.0,89,0.00,,SKC,0.00,VWS V14.01,2013-04-26 10:05:00,
2013-04-26 06:10:00,31.6,28.7,29.30,East,91,0.0,0.0,89,0.00,,SKC,0.00,VWS V14.01,2013-04-26 10:10:00,
2013-04-26 06:15:00,31.4,28.5,29.30,East,91,0.0,0.0,89,0.00,,SKC,0.00,VWS V14.01,2013-04-26 10:15:00,
2013-04-26 06:20:00,31.4,28.5,29.30,East,91,0.0,0.0,89,0.00,,SKC,0.00,VWS V14.01,2013-04-26 10:20:00,
2013-04-26 06:25:00,31.3,28.7,29.30,East,91,0.0,0.0,90,0.00,,SKC,0.00,VWS V14.01,2013-04-26 10:25:00,
2013-04-26 06:30:00,31.2,28.3,29.30,East,91,0.0,0.0,89,0.00,,SKC,0.00,VWS V14.01,2013-04-26 10:30:00,
2013-04-26 06:35:00,31.1,28.5,29.30,East,91,0.0,0.0,90,0.00,,SKC,0.00,VWS V14.01,2013-04-26 10:35:00,
2013-04-26 06:40:00,31.0,28.4,29.30,East,91,0.0,0.0,90,0.00,,SKC,0.00,VWS V14.01,2013-04-26 10:40:00,
2013-04-26 06:45:00,31.1,28.5,29.30,East,91,0.0,0.0,90,0.00,,SKC,0.00,VWS V14.01,2013-04-26 10:45:00,
2013-04-26 06:50:00,31.1,28.5,29.30,East,91,0.0,0.0,90,0.00,,SKC,0.00,VWS V14.01,2013-04-26 10:50:00,
2013-04-26 06:55:00,31.1,28.5,29.30,East,91,0.0,0.0,90,0.00,,SKC,0.00,VWS V14.01,2013-04-26 10:55:00,
2013-04-26 07:00:00,31.0,28.4,29.30,East,91,0.0,0.0,90,0.00,,SKC,0.00,VWS V14.01,2013-04-26 11:00:00,
2013-04-26 07:05:00,30.9,28.3,29.51,East,91,0.0,0.0,90,0.00,,SKC,0.00,VWS V14.01,2013-04-26 11:05:00,
2013-04-26 07:10:00,30.8,28.2,29.51,East,91,0.0,0.0,90,0.00,,SKC,0.00,VWS V14.01,2013-04-26 11:10:00,
2013-04-26 07:15:00,30.9,28.3,29.51,East,91,0.0,0.0,90,0.00,,SKC,0.00,VWS V14.01,2013-04-26 11:15:00,
2013-04-26 07:20:00,31.0,28.4,29.51,East,91,0.0,0.0,90,0.00,,SKC,0.00,VWS V14.01,2013-04-26 11:20:00,
2013-04-26 07:25:00,31.3,29.0,29.51,East,91,0.0,0.0,91,0.00,,SKC,0.00,VWS V14.01,2013-04-26 11:25:00,
2013-04-26 07:30:00,31.6,29.3,29.51,East,91,0.0,0.0,91,0.00,,SKC,0.00,VWS V14.01,2013-04-26 11:30:00,
2013-04-26 07:35:00,32.0,29.7,29.51,East,91,0.0,0.0,91,0.00,,SKC,0.00,VWS V14.01,2013-04-26 11:35:00,
2013-04-26 07:40:00,32.3,30.0,29.51,East,91,0.0,0.0,91,0.00,,SKC,0.00,VWS V14.01,2013-04-26 11:40:00,
2013-04-26 07:45:00,33.1,30.8,29.51,East,91,0.0,0.0,91,0.00,,SKC,0.00,VWS V14.01,2013-04-26 11:45:00,
2013-04-26 07:50:00,33.6,31.0,29.51,East,91,0.0,0.0,90,0.00,,SKC,0.00,VWS V14.01,2013-04-26 11:50:00,
2013-04-26 07:55:00,34.4,31.8,29.47,East,91,0.0,0.0,90,0.00,,SKC,0.00,VWS V14.01,2013-04-26 11:55:00,
2013-04-26 08:00:00,35.0,32.1,29.47,East,91,0.0,0.0,89,0.00,,SKC,0.00,VWS V14.01,2013-04-26 12:00:00,
2013-04-26 08:05:00,35.6,32.4,29.47,East,91,0.0,0.0,88,0.00,,SKC,0.00,VWS V14.01,2013-04-26 12:05:00,
2013-04-26 08:10:00,36.6,33.1,29.47,East,91,0.0,0.0,87,0.00,,SKC,0.00,VWS V14.01,2013-04-26 12:10:00,
2013-04-26 08:15:00,37.6,32.9,29.47,East,91,0.0,0.0,83,0.00,,SKC,0.00,VWS V14.01,2013-04-26 12:15:00,
2013-04-26 08:20:00,38.1,32.8,31.55,East,91,0.0,0.0,81,0.00,,SKC,0.00,VWS V14.01,2013-04-26 12:20:00,
2013-04-26 08:25:00,38.6,33.0,31.55,East,91,0.0,0.0,80,0.00,,SKC,0.00,VWS V14.01,2013-04-26 12:25:00,
2013-04-26 08:30:00,39.2,32.9,31.55,East,91,0.0,0.0,78,0.00,,SKC,0.00,VWS V14.01,2013-04-26 12:30:00,
2013-04-26 08:35:00,39.8,33.2,31.55,East,91,0.0,0.0,77,0.00,,SKC,0.00,VWS V14.01,2013-04-26 12:35:00,
2013-04-26 08:40:00,40.5,33.5,31.55,East,91,0.0,0.0,76,0.00,,SKC,0.00,VWS V14.01,2013-04-26 12:40:00,
2013-04-26 08:45:00,41.5,33.8,31.55,East,91,0.0,0.0,74,0.00,,SKC,0.00,VWS V14.01,2013-04-26 12:45:00,
2013-04-26 08:50:00,42.2,33.8,31.55,East,91,0.0,0.0,72,0.00,,SKC,0.00,VWS V14.01,2013-04-26 12:50:00,
2013-04-26 08:55:00,42.5,34.1,31.55,East,91,0.0,0.0,72,0.00,,SKC,0.00,VWS V14.01,2013-04-26 12:55:00,
2013-04-26 09:00:00,43.0,34.6,31.55,East,91,0.0,0.0,72,0.00,,SKC,0.00,VWS V14.01,2013-04-26 13:00:00,
2013-04-26 09:05:00,43.4,34.3,31.55,East,91,0.0,0.0,70,0.00,,SKC,0.00,VWS V14.01,2013-04-26 13:05:00,
2013-04-26 09:10:00,44.5,35.7,23.03,East,91,0.0,0.0,71,0.00,,SKC,0.00,VWS V14.01,2013-04-26 13:10:00,
2013-04-26 09:15:00,45.5,35.2,22.56,East,91,0.0,1.0,67,0.00,,SKC,0.00,VWS V14.01,2013-04-26 13:15:00,
2013-04-26 09:20:00,46.4,35.3,22.56,East,91,0.0,0.0,65,0.00,,SKC,0.00,VWS V14.01,2013-04-26 13:20:00,
2013-04-26 09:25:00,47.0,35.1,22.56,East,91,2.0,2.0,63,0.00,,SKC,0.00,VWS V14.01,2013-04-26 13:25:00,
2013-04-26 09:30:00,47.6,35.6,22.56,East,91,0.0,0.0,63,0.00,,SKC,0.00,VWS V14.01,2013-04-26 13:30:00,
2013-04-26 09:35:00,48.3,35.9,22.56,East,91,2.0,2.0,62,0.00,,SKC,0.00,VWS V14.01,2013-04-26 13:35:00,
2013-04-26 09:40:00,48.8,34.7,22.56,East,91,0.0,0.0,58,0.00,,SKC,0.00,VWS V14.01,2013-04-26 13:40:00,
2013-04-26 09:45:00,49.2,34.2,22.56,East,91,0.0,0.0,56,0.00,,SKC,0.00,VWS V14.01,2013-04-26 13:45:00,
2013-04-26 09:50:00,50.0,35.4,22.56,East,90,1.0,1.0,57,0.00,,SKC,0.00,VWS V14.01,2013-04-26 13:50:00,
2013-04-26 09:55:00,50.0,34.5,22.56,East,80,0.0,1.0,55,0.00,,SKC,0.00,VWS V14.01,2013-04-26 13:55:00,
2013-04-26 10:00:00,50.4,34.4,22.56,East,79,1.0,1.0,54,0.00,,SKC,0.00,VWS V14.01,2013-04-26 14:00:00,
2013-04-26 10:05:00,51.0,32.5,22.56,ENE,74,3.0,3.0,49,0.00,,SKC,0.00,VWS V14.01,2013-04-26 14:05:00,
2013-04-26 10:10:00,51.3,32.8,22.56,ENE,58,2.0,3.0,49,0.00,,SKC,0.00,VWS V14.01,2013-04-26 14:10:00,
2013-04-26 10:14:00,51.9,33.4,22.56,ENE,58,0.0,0.0,49,0.00,,SKC,0.00,VWS V14.01,2013-04-26 14:14:00,
2013-04-26 10:19:00,52.6,33.0,22.56,NE,34,4.0,4.0,47,0.00,,SKC,0.00,VWS V14.01,2013-04-26 14:19:00,
2013-04-26 10:24:00,52.9,32.7,22.56,NNE,33,3.0,3.0,46,0.00,,SKC,0.00,VWS V14.01,2013-04-26 14:24:00,
2013-04-26 10:29:00,53.2,33.0,22.56,NNE,29,2.0,4.0,46,0.00,,SKC,0.00,VWS V14.01,2013-04-26 14:29:00,
2013-04-26 10:34:00,53.4,32.6,22.56,NNE,17,0.0,0.0,45,0.00,,SKC,0.00,VWS V14.01,2013-04-26 14:34:00,
2013-04-26 10:39:00,53.9,32.5,22.56,NNE,19,1.0,2.0,44,0.00,,SKC,0.00,VWS V14.01,2013-04-26 14:39:00,
2013-04-26 10:44:00,54.0,32.6,22.56,SE,129,1.0,3.0,44,0.00,,SKC,0.00,VWS V14.01,2013-04-26 14:44:00,
2013-04-26 10:49:00,54.4,33.5,22.56,NE,34,2.0,3.0,45,0.00,,SKC,0.00,VWS V14.01,2013-04-26 14:49:00,
2013-04-26 10:54:00,55.1,34.7,22.56,NNE,33,2.0,2.0,46,0.00,,SKC,0.00,VWS V14.01,2013-04-26 14:54:00,
2013-04-26 10:59:00,55.5,34.0,22.56,SE,133,1.0,1.0,44,0.00,,SKC,0.00,VWS V14.01,2013-04-26 14:59:00,
2013-04-26 11:04:00,55.4,34.4,22.56,NNE,17,1.0,1.0,45,0.00,,SKC,0.00,VWS V14.01,2013-04-26 15:04:00,
2013-04-26 11:09:00,56.3,35.2,22.56,ESE,119,0.0,3.0,45,0.00,,SKC,0.00,VWS V14.01,2013-04-26 15:09:00,
2013-04-26 11:14:00,56.8,35.1,22.56,ESE,113,2.0,2.0,44,0.00,,SKC,0.00,VWS V14.01,2013-04-26 15:14:00,
2013-04-26 11:19:00,57.1,34.8,22.56,NE,43,0.0,1.0,43,0.00,,SKC,0.00,VWS V14.01,2013-04-26 15:19:00,
2013-04-26 11:24:00,58.1,36.9,22.56,ESE,107,7.0,7.0,45,0.00,,SKC,0.00,VWS V14.01,2013-04-26 15:24:00,
2013-04-26 11:29:00,58.4,35.4,22.56,ESE,117,4.0,4.0,42,0.00,,SKC,0.00,VWS V14.01,2013-04-26 15:29:00,
2013-04-26 11:34:00,58.6,37.3,22.56,ESE,107,3.0,3.0,45,0.00,,SKC,0.00,VWS V14.01,2013-04-26 15:34:00,
2013-04-26 11:39:00,59.7,37.8,22.56,ESE,107,2.0,5.0,44,0.00,,SKC,0.00,VWS V14.01,2013-04-26 15:39:00,
2013-04-26 11:44:00,59.8,36.7,22.56,ESE,107,1.0,1.0,42,0.00,,SKC,0.00,VWS V14.01,2013-04-26 15:44:00,
2013-04-26 11:49:00,59.8,36.7,22.56,ESE,113,0.0,4.0,42,0.00,,SKC,0.00,VWS V14.01,2013-04-26 15:49:00,
2013-04-26 11:54:00,60.0,37.5,22.56,ESE,110,0.0,2.0,43,0.00,,SKC,0.00,VWS V14.01,2013-04-26 15:54:00,
2013-04-26 11:59:00,60.5,37.3,22.56,East,99,0.0,1.0,42,0.00,,SKC,0.00,VWS V14.01,2013-04-26 15:59:00,
2013-04-26 12:04:00,60.6,35.5,22.56,ESE,118,1.0,2.0,39,0.00,,SKC,0.00,VWS V14.01,2013-04-26 16:04:00,
2013-04-26 12:09:00,60.5,36.1,22.56,SE,124,1.0,4.0,40,0.00,,SKC,0.00,VWS V14.01,2013-04-26 16:09:00,
2013-04-26 12:14:00,60.2,35.8,22.56,ESE,121,2.0,3.0,40,0.00,,SKC,0.00,VWS V14.01,2013-04-26 16:14:00,
2013-04-26 12:19:00,61.1,37.2,22.56,SE,125,1.0,5.0,41,0.00,,SKC,0.00,VWS V14.01,2013-04-26 16:19:00,
2013-04-26 12:24:00,61.4,38.7,22.56,ESE,104,1.0,3.0,43,0.00,,SKC,0.00,VWS V14.01,2013-04-26 16:24:00,
2013-04-26 12:29:00,61.6,36.4,22.56,ESE,114,1.0,7.0,39,0.00,,SKC,0.00,VWS V14.01,2013-04-26 16:29:00,
2013-04-26 12:34:00,62.0,38.0,22.56,SE,124,5.0,8.0,41,0.00,,SKC,0.00,VWS V14.01,2013-04-26 16:34:00,
2013-04-26 12:39:00,62.6,38.0,22.56,ESE,110,1.0,2.0,40,0.00,,SKC,0.00,VWS V14.01,2013-04-26 16:39:00,
2013-04-26 12:44:00,63.2,39.1,22.56,East,99,1.0,1.0,41,0.00,,SKC,0.00,VWS V14.01,2013-04-26 16:44:00,
2013-04-26 12:49:00,63.8,37.7,22.56,East,101,3.0,5.0,38,0.00,,SKC,0.00,VWS V14.01,2013-04-26 16:49:00,
2013-04-26 12:54:00,63.6,38.2,23.89,SE,134,3.0,6.0,39,0.00,,SKC,0.00,VWS V14.01,2013-04-26 16:54:00,
2013-04-26 12:59:00,63.6,37.5,23.89,ESE,123,0.0,2.0,38,0.00,,SKC,0.00,VWS V14.01,2013-04-26 16:59:00,
2013-04-26 13:04:00,63.9,39.8,23.89,SE,134,1.0,4.0,41,0.00,,SKC,0.00,VWS V14.01,2013-04-26 17:04:00,
2013-04-26 13:09:00,64.3,40.1,23.89,WNW,299,2.0,4.0,41,0.00,,SKC,0.00,VWS V14.01,2013-04-26 17:09:00,
2013-04-26 13:14:00,65.0,39.5,23.89,ESE,110,7.0,7.0,39,0.00,,SKC,0.00,VWS V14.01,2013-04-26 17:14:00,
2013-04-26 13:19:00,65.0,38.8,23.89,East,99,7.0,10.0,38,0.00,,SKC,0.00,VWS V14.01,2013-04-26 17:19:00,
2013-04-26 13:24:00,64.3,40.1,23.89,SE,132,6.0,6.0,41,0.00,,SKC,0.00,VWS V14.01,2013-04-26 17:24:00,
2013-04-26 13:29:00,64.3,39.5,23.89,SE,130,2.0,2.0,40,0.00,,SKC,0.00,VWS V14.01,2013-04-26 17:29:00,
2013-04-26 13:34:00,64.8,39.3,23.89,NE,45,2.0,3.0,39,0.00,,SKC,0.00,VWS V14.01,2013-04-26 17:34:00,
2013-04-26 13:39:00,65.4,39.8,23.89,ESE,119,3.0,8.0,39,0.00,,SKC,0.00,VWS V14.01,2013-04-26 17:39:00,
2013-04-26 13:44:00,65.2,38.3,23.89,ESE,107,0.0,2.0,37,0.00,,SKC,0.00,VWS V14.01,2013-04-26 17:44:00,
2013-04-26 13:49:00,65.6,38.7,23.89,ESE,113,1.0,4.0,37,0.00,,SKC,0.00,VWS V14.01,2013-04-26 17:49:00,
2013-04-26 13:54:00,66.0,40.4,23.89,ESE,122,3.0,5.0,39,0.00,,SKC,0.00,VWS V14.01,2013-04-26 17:54:00,
2013-04-26 13:59:00,66.3,41.3,23.89,ESE,121,0.0,1.0,40,0.00,,SKC,0.00,VWS V14.01,2013-04-26 17:59:00,
2013-04-26 14:04:00,67.0,38.5,23.89,ESE,118,1.0,2.0,35,0.00,,SKC,0.00,VWS V14.01,2013-04-26 18:04:00,
2013-04-26 14:09:00,67.3,38.7,23.89,NNE,15,3.0,3.0,35,0.00,,SKC,0.00,VWS V14.01,2013-04-26 18:09:00,
2013-04-26 14:14:00,68.1,39.4,23.89,North,349,5.0,5.0,35,0.00,,SKC,0.00,VWS V14.01,2013-04-26 18:14:00,
2013-04-26 14:19:00,68.4,41.1,23.89,SE,127,1.0,3.0,37,0.00,,SKC,0.00,VWS V14.01,2013-04-26 18:19:00,
2013-04-26 14:24:00,68.1,40.2,23.89,NE,47,7.0,7.0,36,0.00,,SKC,0.00,VWS V14.01,2013-04-26 18:24:00,
2013-04-26 14:29:00,67.6,39.0,23.89,NNE,15,7.0,8.0,35,0.00,,SKC,0.00,VWS V14.01,2013-04-26 18:29:00,
2013-04-26 14:34:00,67.4,38.8,23.89,NE,34,7.0,9.0,35,0.00,,SKC,0.00,VWS V14.01,2013-04-26 18:34:00,
2013-04-26 14:39:00,67.7,38.3,23.89,North,11,1.0,1.0,34,0.00,,SKC,0.00,VWS V14.01,2013-04-26 18:39:00,
2013-04-26 14:44:00,68.0,39.3,23.89,ESE,120,3.0,3.0,35,0.00,,SKC,0.00,VWS V14.01,2013-04-26 18:44:00,
2013-04-26 14:49:00,67.9,40.0,23.89,SE,133,4.0,4.0,36,0.00,,SKC,0.00,VWS V14.01,2013-04-26 18:49:00,
2013-04-26 14:54:00,67.6,38.3,23.89,ENE,65,1.0,3.0,34,0.00,,SKC,0.00,VWS V14.01,2013-04-26 18:54:00,
2013-04-26 14:59:00,67.1,40.7,23.89,SE,134,0.0,1.0,38,0.00,,SKC,0.00,VWS V14.01,2013-04-26 18:59:00,
2013-04-26 15:04:00,66.8,39.0,23.89,ESE,113,4.0,4.0,36,0.00,,SKC,0.00,VWS V14.01,2013-04-26 19:04:00,
2013-04-26 15:09:00,66.5,41.5,23.89,East,82,2.0,2.0,40,0.00,,SKC,0.00,VWS V14.01,2013-04-26 19:09:00,
2013-04-26 15:14:00,66.5,39.5,23.89,East,87,2.0,2.0,37,0.00,,SKC,0.00,VWS V14.01,2013-04-26 19:14:00,
2013-04-26 15:19:00,66.6,40.2,23.89,ESE,117,2.0,3.0,38,0.00,,SKC,0.00,VWS V14.01,2013-04-26 19:19:00,
2013-04-26 15:24:00,67.2,40.1,23.89,ESE,120,3.0,3.0,37,0.00,,SKC,0.00,VWS V14.01,2013-04-26 19:24:00,
2013-04-26 15:29:00,67.1,38.6,23.89,SSE,150,5.0,5.0,35,0.00,,SKC,0.00,VWS V14.01,2013-04-26 19:29:00,
2013-04-26 15:34:00,66.9,39.8,23.89,ESE,114,3.0,4.0,37,0.00,,SKC,0.00,VWS V14.01,2013-04-26 19:34:00,
2013-04-26 15:39:00,66.6,38.1,23.89,ENE,76,1.0,3.0,35,0.00,,SKC,0.00,VWS V14.01,2013-04-26 19:39:00,
2013-04-26 15:44:00,66.9,39.8,23.89,ESE,102,0.0,0.0,37,0.00,,SKC,0.00,VWS V14.01,2013-04-26 19:44:00,
2013-04-26 15:49:00,67.4,39.5,23.89,ESE,121,1.0,2.0,36,0.00,,SKC,0.00,VWS V14.01,2013-04-26 19:49:00,
2013-04-26 15:54:00,67.6,41.8,23.89,NNE,14,1.0,2.0,39,0.00,,SKC,0.00,VWS V14.01,2013-04-26 19:54:00,
2013-04-26 15:59:00,67.5,40.3,23.89,ESE,114,2.0,3.0,37,0.00,,SKC,0.00,VWS V14.01,2013-04-26 19:59:00,
2013-04-26 16:03:00,66.8,41.7,23.89,East,89,3.0,3.0,40,0.00,,SKC,0.00,VWS V14.01,2013-04-26 20:03:00,
2013-04-26 16:08:00,66.5,40.1,23.89,SE,133,3.0,3.0,38,0.00,,SKC,0.00,VWS V14.01,2013-04-26 20:08:00,
2013-04-26 16:13:00,66.7,40.3,23.89,ESE,117,2.0,3.0,38,0.00,,SKC,0.00,VWS V14.01,2013-04-26 20:13:00,
2013-04-26 16:18:00,67.2,41.4,23.89,SE,138,2.0,3.0,39,0.00,,SKC,0.00,VWS V14.01,2013-04-26 20:18:00,
2013-04-26 16:23:00,67.7,41.2,23.89,SE,132,0.0,0.0,38,0.00,,SKC,0.00,VWS V14.01,2013-04-26 20:23:00,
2013-04-26 16:28:00,67.9,40.7,23.89,NNE,33,0.0,0.0,37,0.00,,SKC,0.00,VWS V14.01,2013-04-26 20:28:00,
2013-04-26 16:33:00,67.8,39.9,23.89,ESE,103,2.0,3.0,36,0.00,,SKC,0.00,VWS V14.01,2013-04-26 20:33:00,
2013-04-26 16:38:00,67.3,40.8,23.89,ENE,74,0.0,1.0,38,0.00,,SKC,0.00,VWS V14.01,2013-04-26 20:38:00,
2013-04-26 16:43:00,67.0,40.6,23.89,SE,125,1.0,1.0,38,0.00,,SKC,0.00,VWS V14.01,2013-04-26 20:43:00,
2013-04-26 16:48:00,66.8,39.7,23.89,SE,128,3.0,6.0,37,0.00,,SKC,0.00,VWS V14.01,2013-04-26 20:48:00,
2013-04-26 16:53:00,66.5,40.8,23.89,East,85,2.0,2.0,39,0.00,,SKC,0.00,VWS V14.01,2013-04-26 20:53:00,
2013-04-26 16:58:00,66.3,40.6,23.89,SE,124,2.0,4.0,39,0.00,,SKC,0.00,VWS V14.01,2013-04-26 20:58:00,
2013-04-26 17:03:00,66.1,40.5,23.89,SE,125,5.0,8.0,39,0.00,,SKC,0.00,VWS V14.01,2013-04-26 21:03:00,
2013-04-26 17:08:00,65.8,40.2,23.89,ENE,71,3.0,3.0,39,0.00,,SKC,0.00,VWS V14.01,2013-04-26 21:08:00,
2013-04-26 17:13:00,65.8,38.8,23.89,ENE,69,4.0,7.0,37,0.00,,SKC,0.00,VWS V14.01,2013-04-26 21:13:00,
2013-04-26 17:18:00,65.7,40.1,23.89,SE,136,0.0,1.0,39,0.00,,SKC,0.00,VWS V14.01,2013-04-26 21:18:00,
2013-04-26 17:23:00,66.2,39.2,23.89,SE,136,0.0,0.0,37,0.00,,SKC,0.00,VWS V14.01,2013-04-26 21:23:00,
2013-04-26 17:28:00,66.7,39.6,23.89,East,96,8.0,8.0,37,0.00,,SKC,0.00,VWS V14.01,2013-04-26 21:28:00,
2013-04-26 17:33:00,66.8,39.7,23.89,East,84,2.0,6.0,37,0.00,,SKC,0.00,VWS V14.01,2013-04-26 21:33:00,
2013-04-26 17:38:00,66.9,39.1,23.89,SSE,149,1.0,3.0,36,0.00,,SKC,0.00,VWS V14.01,2013-04-26 21:38:00,
2013-04-26 17:43:00,67.0,38.5,23.89,SE,127,0.0,3.0,35,0.00,,SKC,0.00,VWS V14.01,2013-04-26 21:43:00,
2013-04-26 17:48:00,66.8,39.7,23.89,SE,126,1.0,2.0,37,0.00,,SKC,0.00,VWS V14.01,2013-04-26 21:48:00,
2013-04-26 17:53:00,66.7,41.0,23.89,North,5,1.0,1.0,39,0.00,,SKC,0.00,VWS V14.01,2013-04-26 21:53:00,
2013-04-26 17:58:00,66.5,40.1,23.89,North,9,0.0,1.0,38,0.00,,SKC,0.00,VWS V14.01,2013-04-26 21:58:00,
2013-04-26 18:03:00,66.2,39.2,23.89,NNE,32,5.0,6.0,37,0.00,,SKC,0.00,VWS V14.01,2013-04-26 22:03:00,
2013-04-26 18:08:00,66.5,40.8,23.89,NNE,32,0.0,1.0,39,0.00,,SKC,0.00,VWS V14.01,2013-04-26 22:08:00,
2013-04-26 18:13:00,66.8,39.7,23.89,NNE,32,0.0,1.0,37,0.00,,SKC,0.00,VWS V14.01,2013-04-26 22:13:00,
2013-04-26 18:18:00,66.9,39.1,23.89,NE,37,1.0,5.0,36,0.00,,SKC,0.00,VWS V14.01,2013-04-26 22:18:00,
2013-04-26 18:23:00,66.6,40.2,23.89,North,9,0.0,2.0,38,0.00,,SKC,0.00,VWS V14.01,2013-04-26 22:23:00,
2013-04-26 18:28:00,66.1,39.1,23.89,North,9,0.0,0.0,37,0.00,,SKC,0.00,VWS V14.01,2013-04-26 22:28:00,
2013-04-26 18:33:00,65.4,40.5,23.89,NNE,24,5.0,5.0,40,0.00,,SKC,0.00,VWS V14.01,2013-04-26 22:33:00,
2013-04-26 18:38:00,64.9,39.4,23.89,ENE,75,3.0,6.0,39,0.00,,SKC,0.00,VWS V14.01,2013-04-26 22:38:00,
2013-04-26 18:43:00,64.4,38.9,23.89,NNW,342,4.0,4.0,39,0.00,,SKC,0.00,VWS V14.01,2013-04-26 22:43:00,
2013-04-26 18:48:00,64.0,39.8,23.89,North,349,1.0,2.0,41,0.00,,SKC,0.00,VWS V14.01,2013-04-26 22:48:00,
2013-04-26 18:53:00,63.8,39.7,23.89,SE,145,2.0,4.0,41,0.00,,SKC,0.00,VWS V14.01,2013-04-26 22:53:00,
2013-04-26 18:58:00,63.4,40.5,23.89,NE,49,2.0,2.0,43,0.00,,SKC,0.00,VWS V14.01,2013-04-26 22:58:00,
2013-04-26 19:03:00,63.1,40.3,23.89,East,82,0.0,0.0,43,0.00,,SKC,0.00,VWS V14.01,2013-04-26 23:03:00,
2013-04-26 19:08:00,62.9,39.5,23.89,East,90,0.0,0.0,42,0.00,,SKC,0.00,VWS V14.01,2013-04-26 23:08:00,
2013-04-26 19:13:00,62.6,41.0,23.89,ESE,107,3.0,3.0,45,0.00,,SKC,0.00,VWS V14.01,2013-04-26 23:13:00,
2013-04-26 19:18:00,62.2,40.6,23.89,ESE,113,0.0,2.0,45,0.00,,SKC,0.00,VWS V14.01,2013-04-26 23:18:00,
2013-04-26 19:23:00,61.9,40.3,23.89,ESE,123,0.0,0.0,45,0.00,,SKC,0.00,VWS V14.01,2013-04-26 23:23:00,
2013-04-26 19:28:00,61.8,40.3,23.89,North,10,0.0,4.0,45,0.00,,SKC,0.00,VWS V14.01,2013-04-26 23:28:00,
2013-04-26 19:33:00,61.7,40.2,23.89,North,11,0.0,0.0,45,0.00,,SKC,0.00,VWS V14.01,2013-04-26 23:33:00,
2013-04-26 19:38:00,61.6,40.1,23.89,North,360,0.0,0.0,45,0.00,,SKC,0.00,VWS V14.01,2013-04-26 23:38:00,
2013-04-26 19:43:00,61.4,40.5,23.89,North,5,1.0,1.0,46,0.00,,SKC,0.00,VWS V14.01,2013-04-26 23:43:00,
2013-04-26 19:48:00,61.2,41.4,23.89,North,360,0.0,0.0,48,0.00,,SKC,0.00,VWS V14.01,2013-04-26 23:48:00,
2013-04-26 19:53:00,60.8,40.5,23.89,North,5,0.0,0.0,47,0.00,,SKC,0.00,VWS V14.01,2013-04-26 23:53:00,
2013-04-26 20:05:00,59.8,40.1,23.89,North,5,0.0,0.0,48,0.00,,SKC,0.00,VWS V14.01,2013-04-27 00:05:00,
2013-04-26 20:10:00,59.4,40.8,23.89,North,5,0.0,0.0,50,0.00,,SKC,0.00,VWS V14.01,2013-04-27 00:10:00,
2013-04-26 20:15:00,59.0,40.4,23.89,North,360,0.0,0.0,50,0.00,,SKC,0.00,VWS V14.01,2013-04-27 00:15:00,
2013-04-26 20:20:00,58.9,40.8,23.89,North,5,0.0,0.0,51,0.00,,SKC,0.00,VWS V14.01,2013-04-27 00:20:00,
2013-04-26 20:25:00,58.5,39.9,23.89,North,10,0.0,2.0,50,0.00,,SKC,0.00,VWS V14.01,2013-04-27 00:25:00,
2013-04-26 20:30:00,58.6,40.0,23.89,NNE,22,2.0,2.0,50,0.00,,SKC,0.00,VWS V14.01,2013-04-27 00:30:00,
2013-04-26 20:35:00,58.6,40.0,23.89,North,360,2.0,4.0,50,0.00,,SKC,0.00,VWS V14.01,2013-04-27 00:35:00,
2013-04-26 20:40:00,58.4,39.8,23.89,North,5,0.0,0.0,50,0.00,,SKC,0.00,VWS V14.01,2013-04-27 00:40:00,
2013-04-26 20:45:00,58.1,39.6,23.89,North,5,0.0,0.0,50,0.00,,SKC,0.00,VWS V14.01,2013-04-27 00:45:00,
2013-04-26 20:50:00,57.9,39.9,23.89,North,5,1.0,1.0,51,0.00,,SKC,0.00,VWS V14.01,2013-04-27 00:50:00,
2013-04-26 20:55:00,57.6,40.6,23.89,North,360,0.0,0.0,53,0.00,,SKC,0.00,VWS V14.01,2013-04-27 00:55:00,
2013-04-26 21:00:00,57.3,39.8,23.89,North,360,0.0,0.0,52,0.00,,SKC,0.00,VWS V14.01,2013-04-27 01:00:00,
2013-04-26 21:05:00,57.1,40.2,23.89,North,5,0.0,0.0,53,0.00,,SKC,0.00,VWS V14.01,2013-04-27 01:05:00,
2013-04-26 21:10:00,56.8,40.3,23.89,North,360,0.0,1.0,54,0.00,,SKC,0.00,VWS V14.01,2013-04-27 01:10:00,
2013-04-26 21:15:00,56.6,41.1,23.89,North,5,0.0,0.0,56,0.00,,SKC,0.00,VWS V14.01,2013-04-27 01:15:00,
2013-04-26 21:20:00,56.4,40.9,23.89,North,5,0.0,0.0,56,0.00,,SKC,0.00,VWS V14.01,2013-04-27 01:20:00,
2013-04-26 21:25:00,56.2,40.7,23.89,North,5,0.0,0.0,56,0.00,,SKC,0.00,VWS V14.01,2013-04-27 01:25:00,
2013-04-26 21:30:00,56.1,41.1,23.89,North,5,0.0,0.0,57,0.00,,SKC,0.00,VWS V14.01,2013-04-27 01:30:00,
2013-04-26 21:35:00,55.9,40.5,23.89,North,5,0.0,0.0,56,0.00,,SKC,0.00,VWS V14.01,2013-04-27 01:35:00,
2013-04-26 21:40:00,55.8,40.4,23.89,North,360,0.0,0.0,56,0.00,,SKC,0.00,VWS V14.01,2013-04-27 01:40:00,
2013-04-26 21:45:00,55.6,40.6,23.89,North,360,0.0,0.0,57,0.00,,SKC,0.00,VWS V14.01,2013-04-27 01:45:00,
2013-04-26 21:50:00,55.5,40.5,23.89,North,5,0.0,0.0,57,0.00,,SKC,0.00,VWS V14.01,2013-04-27 01:50:00,
2013-04-26 21:55:00,55.4,40.9,23.89,North,5,0.0,0.0,58,0.00,,SKC,0.00,VWS V14.01,2013-04-27 01:55:00,
2013-04-26 22:00:00,55.3,41.2,23.89,North,5,0.0,0.0,59,0.00,,SKC,0.00,VWS V14.01,2013-04-27 02:00:00,
2013-04-26 22:05:00,55.1,41.0,23.89,North,5,0.0,0.0,59,0.00,,SKC,0.00,VWS V14.01,2013-04-27 02:05:00,
2013-04-26 22:10:00,55.1,41.5,23.89,North,360,0.0,0.0,60,0.00,,SKC,0.00,VWS V14.01,2013-04-27 02:10:00,
2013-04-26 22:15:00,55.0,42.2,23.89,North,360,0.0,0.0,62,0.00,,SKC,0.00,VWS V14.01,2013-04-27 02:15:00,
2013-04-26 22:20:00,54.8,42.0,23.89,North,360,0.0,0.0,62,0.00,,SKC,0.00,VWS V14.01,2013-04-27 02:20:00,
2013-04-26 22:25:00,54.6,40.1,23.89,North,5,0.0,0.0,58,0.00,,SKC,0.00,VWS V14.01,2013-04-27 02:25:00,
2013-04-26 22:30:00,54.5,40.9,23.89,North,5,0.0,0.0,60,0.00,,SKC,0.00,VWS V14.01,2013-04-27 02:30:00,
2013-04-26 22:35:00,54.5,40.9,23.89,North,5,0.0,0.0,60,0.00,,SKC,0.00,VWS V14.01,2013-04-27 02:35:00,
2013-04-26 22:40:00,54.4,41.7,23.89,North,360,0.0,0.0,62,0.00,,SKC,0.00,VWS V14.01,2013-04-27 02:40:00,
2013-04-26 22:45:00,54.2,42.3,23.89,North,360,0.0,1.0,64,0.00,,SKC,0.00,VWS V14.01,2013-04-27 02:45:00,
2013-04-26 22:50:00,54.1,42.2,23.89,North,5,0.0,0.0,64,0.00,,SKC,0.00,VWS V14.01,2013-04-27 02:50:00,
2013-04-26 22:55:00,53.9,42.0,23.89,North,5,0.0,0.0,64,0.00,,SKC,0.00,VWS V14.01,2013-04-27 02:55:00,
2013-04-26 23:00:00,53.9,42.0,23.89,North,360,0.0,0.0,64,0.00,,SKC,0.00,VWS V14.01,2013-04-27 03:00:00,
2013-04-26 23:05:00,53.8,42.3,23.89,North,5,0.0,0.0,65,0.00,,SKC,0.00,VWS V14.01,2013-04-27 03:05:00,
2013-04-26 23:10:00,53.8,41.9,23.89,North,360,0.0,0.0,64,0.00,,SKC,0.00,VWS V14.01,2013-04-27 03:10:00,
2013-04-26 23:15:00,53.7,42.2,23.89,North,360,0.0,0.0,65,0.00,,SKC,0.00,VWS V14.01,2013-04-27 03:15:00,
2013-04-26 23:20:00,53.7,42.2,23.89,North,5,0.0,0.0,65,0.00,,SKC,0.00,VWS V14.01,2013-04-27 03:20:00,
2013-04-26 23:25:00,53.7,41.8,23.89,North,5,0.0,0.0,64,0.00,,SKC,0.00,VWS V14.01,2013-04-27 03:25:00,
2013-04-26 23:30:00,53.7,41.8,23.89,North,360,0.0,0.0,64,0.00,,SKC,0.00,VWS V14.01,2013-04-27 03:30:00,
2013-04-26 23:35:00,53.7,42.2,23.89,North,360,0.0,0.0,65,0.00,,SKC,0.00,VWS V14.01,2013-04-27 03:35:00,
2013-04-26 23:40:00,53.6,41.3,23.89,North,5,0.0,0.0,63,0.00,,SKC,0.00,VWS V14.01,2013-04-27 03:40:00,
2013-04-26 23:45:00,53.6,41.7,23.89,North,5,0.0,0.0,64,0.00,,SKC,0.00,VWS V14.01,2013-04-27 03:45:00,
2013-04-26 23:50:00,53.6,41.3,23.89,North,5,0.0,0.0,63,0.00,,SKC,0.00,VWS V14.01,2013-04-27 03:50:00,
2013-04-26 23:55:00,53.6,41.3,23.89,North,5,0.0,0.0,63,0.00,,SKC,0.00,VWS V14.01,2013-04-27 03:55:00,